Printer-friendly version

IAU Minor Planet Center

Minor Planet Center

(22) Kalliope

Orbital Elements

The following orbital elements are taken from MPO 53552
   (22) Kalliope
Epoch 2005 Jan. 30.0 TT = JDT 2453400.5                 Goffin
M 243.79546              (2000.0)            P               Q
n   0.19872833     Peri.  356.31274     +0.45916968     -0.86145340
a   2.9082352      Node    66.24549     +0.82098706     +0.31822527
e   0.1028764      Incl.   13.71049     +0.33932795     +0.39576598
P   4.96           H    6.45          G   0.21           U   0
From 1675 observations at 90 oppositions, 1852-2003, mean residual 0".56.
An explanation of the orbital elements is available.

These orbital elements are also available in forms suitable for loading into a number of popular planetarium-type software programs.


Ephemeris

The following ephemeris is at intervals of five days. A daily ephemeris covering the same time interval is also available.

Personalized ephemerides for this object (and others) can be generated using the MPES.

Date    TT    R. A. (2000) Decl.     Delta      r     Elong.  Phase     V
 
2005 05 31    23 04.45   -21 07.8    2.759    2.950    90.6    20.1    11.9
2005 06 05    23 08.91   -21 08.2    2.689    2.945    94.3    20.1    11.9
2005 06 10    23 13.02   -21 11.7    2.620    2.940    98.1    20.0    11.8
2005 06 15    23 16.73   -21 18.4    2.551    2.935   101.9    19.8    11.7
2005 06 20    23 20.03   -21 28.4    2.484    2.929   105.8    19.5    11.7
2005 06 25    23 22.90   -21 41.9    2.418    2.924   109.8    19.1    11.6
2005 06 30    23 25.29   -21 58.9    2.355    2.919   113.9    18.6    11.5
2005 07 05    23 27.17   -22 19.4    2.293    2.914   118.1    17.9    11.4
2005 07 10    23 28.51   -22 43.3    2.235    2.909   122.4    17.2    11.4
2005 07 15    23 29.28   -23 10.4    2.179    2.904   126.7    16.3    11.3
2005 07 20    23 29.46   -23 40.5    2.127    2.898   131.1    15.3    11.2
2005 07 25    23 29.04   -24 13.1    2.079    2.893   135.5    14.2    11.1
2005 07 30    23 28.00   -24 47.7    2.036    2.888   140.0    13.1    11.0
2005 08 04    23 26.35   -25 23.7    1.997    2.883   144.3    11.9    10.9
2005 08 09    23 24.10   -26 00.3    1.964    2.878   148.4    10.6    10.8
2005 08 14    23 21.28   -26 36.4    1.937    2.872   152.3     9.4    10.8
2005 08 19    23 17.97   -27 11.2    1.915    2.867   155.5     8.4    10.7
2005 08 24    23 14.23   -27 43.5    1.900    2.862   157.9     7.6    10.6
2005 08 29    23 10.15   -28 12.5    1.891    2.857   159.0     7.3    10.6
2005 09 03    23 05.84   -28 37.3    1.889    2.852   158.6     7.4    10.6
2005 09 08    23 01.44   -28 57.0    1.893    2.846   156.8     8.0    10.6
2005 09 13    22 57.06   -29 11.1    1.903    2.841   153.9     9.0    10.7
2005 09 18    22 52.85   -29 19.1    1.920    2.836   150.2    10.1    10.7
2005 09 23    22 48.91   -29 21.0    1.942    2.831   146.1    11.4    10.8
2005 09 28    22 45.36   -29 16.7    1.970    2.826   141.7    12.7    10.9
2005 10 03    22 42.29   -29 06.5    2.003    2.821   137.2    14.0    10.9
2005 10 08    22 39.76   -28 50.7    2.042    2.816   132.6    15.1    11.0
2005 10 13    22 37.84   -28 29.6    2.084    2.810   128.0    16.2    11.1
2005 10 18    22 36.56   -28 03.7    2.130    2.805   123.5    17.2    11.2
2005 10 23    22 35.91   -27 33.6    2.180    2.800   119.0    18.1    11.2
2005 10 28    22 35.89   -26 59.6    2.232    2.795   114.6    18.9    11.3
2005 11 02    22 36.51   -26 22.2    2.287    2.790   110.2    19.5    11.4
2005 11 07    22 37.73   -25 41.8    2.344    2.785   106.0    20.0    11.4
2005 11 12    22 39.52   -24 58.7    2.403    2.781   101.9    20.4    11.5
2005 11 17    22 41.85   -24 13.3    2.463    2.776    97.8    20.7    11.6

Back to Bright Minor Planets

Astronomical Headlines Index

MPC


Valid HTML 4.01!